Skip Page Navigation
NASA JPL Caltech
NASA Logo - Jet Propulsion Laboratory + View the NASA Portal
+ Center for Near-Earth Object Studies
JPL Home Earth Solar System Stars & Galaxies Technology
JPL Solar System Dynamics
BODIES ORBITS EPHEMERIDES TOOLS PHYSICAL DATA DISCOVERY FAQ SITE MAP
JPL Small-Body Database Browser
Search: [ help ]  
11716 Amahartman (1998 HY79)
Classification: Main-belt Asteroid          SPK-ID: 2011716
Ephemeris | Orbit Diagram | Orbital Elements | Mission Design | Physical Parameters | Discovery Circumstances ]

[ show orbit diagram ]
Orbital Elements at Epoch 2459000.5 (2020-May-31.0) TDB
Reference: JPL 23 (heliocentric ecliptic J2000)
 Element Value Uncertainty (1-sigma)   Units 
e .1927493391408163 4.2853e-08  
a 2.635744744364574 1.0665e-08 au
q 2.127706686744422 1.156e-07 au
i 2.99243098867005 4.9644e-06 deg
node 344.3932555714412 7.564e-05 deg
peri 338.9450195421247 7.6453e-05 deg
M 331.7610065267262 1.087e-05 deg
tp 2459123.102736270650
(2020-Sep-30.60273627)
4.7294e-05 TDB
period 1562.980107602153
4.28
9.4863e-06
2.597e-08
d
yr
n .2303292269997564 1.398e-09 deg/d
Q 3.143782801984726 1.2721e-08 au
  Orbit Determination Parameters
   # obs. used (total)      1276  
   data-arc span      10780 days (29.51 yr)  
   first obs. used      1990-12-12  
   last obs. used      2020-06-17  
   planetary ephem.      DE431  
   SB-pert. ephem.      SB431-N16  
   condition code      0  
   norm. resid. RMS      .53208  
   source      ORB  
   producer      Otto Matic  
   solution date      2020-Jun-23 17:18:50  

Additional Information
 Earth MOID = 1.11581 au 
 Jupiter MOID = 2.18638 au 
 T_jup = 3.369 
[ show covariance matrix ]

Ephemeris | Orbit Diagram | Orbital Elements | Mission Design | Physical Parameters | Discovery Circumstances ]

Physical Parameter Table
Parameter Symbol Value Units Sigma Reference Notes
absolute magnitude H 14.7   n/a MPO384860  
rotation period rot_per 2.53 h n/a LCDB (Rev. 2019-August); Warner et al., 2009 Result based on less than full coverage, so that the period may be wrong by 30 percent or so.
Published Reference List:
[Chang, C.K.; Ip, W.-H.; Lin, H.-W.; Cheng, Y.C.; et al. (2015) Astrophys. J. Supp. Ser. 219, A27.]

11716 Amahartman           Discovered 1998 Apr. 21 by the Lincoln Laboratory Near-Earth Asteroid Research Team at Socorro.
Amanda Nicole Hartman (b. 1987) is a finalist in the 2002 Intel International Science and Engineering Fair for her microbiology project. She attends the China Spring High School, China Spring, Texas, U.S.A.
NOTE: some special characters may not display properly (any characters within {} are an attempt to place the proper accent above a character)
Reference: 20020724/MPCPages.arcLast Updated: 2003-10-02

Alternate Designations
 1998 HY79 = 1995 WT25 
Ephemeris | Orbit Diagram | Orbital Elements | Mission Design | Physical Parameters | Discovery Circumstances ]
ABOUT SSD CREDITS/AWARDS PRIVACY/COPYRIGHT GLOSSARY LINKS
FirstGov 2020-Aug-10 03:22 UT
(server date/time)  
NASA Home Page
Site Manager:   Ryan S. Park
Webmaster  Alan B. Chamberlin